Lexington Weather

Lexington, Massachusetts, USA

59°F
11/30/2020 6:31pm 
  • Lexington Conditions: Rain, Mist, Overcast
  • Temperature: 59.2°F / 15.1°CColder 0.2°F than last hour.
  • Dew Point: 57.4°FDecreased 0.2°Fsince last hour.
  • Relative Humidity: 94
  • Wind: Wind from S S 4 mph, 10-min avg: 6 mph, gust: 24 mph
  • Barometer: 29.55 inFalling 0.02  inHg/hr Falling Slowly
  • Visibility: 3 miles
  • Rain Today: 0.58 in
  •   
Southeast Middlesex County - Wind Advisory - Special Weather Statement
 - SEE ALL NEARBY ALERTS -

Regional Weather Roundup
for Boston / Norton, MA

        
000
ASUS41 KBOX 250204
RWRBOX

REGIONAL WEATHER ROUNDUP
NATIONAL WEATHER SERVICE BOSTON/NORTON MA
900 PM EST TUE NOV 24 2020

NOTE:  "FAIR" INDICATES FEW OR NO CLOUDS BELOW 12,000 FEET WITH NO 
SIGNIFICANT WEATHER AND/OR OBSTRUCTIONS TO VISIBILITY.

MAZALL-250300-
EASTERN MASSACHUSETTS
  
CITY           SKY/WX    TMP DP  RH WIND       PRES   REMARKS
BOSTON         PTCLDY    31  16  54 N7        30.46R WCI  24          
BEVERLY        CLEAR     30  13  49 N7        30.45R WCI  23          
LAWRENCE       CLEAR     28  15  58 NE9       30.47R WCI  19          
BEDFORD        CLEAR     28  15  58 NE3       30.44R                  
BLUE HILL        N/A     31  15  52 N9        30.41R WCI  23          
NORWOOD        CLEAR     28  21  75 CALM      30.46R                  
MARSHFIELD     CLEAR     39  23  52 VRB3      30.45R                  
PLYMOUTH       PTCLDY    26  21  81 CALM      30.44R                  
TAUNTON        PTCLDY    26  22  84 CALM      30.44R                  
NEW BEDFORD    PTCLDY    26  22  84 SE3       30.44R                  
$$

MAZALL-250300-
CAPE COD AND THE ISLANDS
  
CITY           SKY/WX    TMP DP  RH WIND       PRES   REMARKS
FALMOUTH       CLEAR     27  21  80 CALM      30.44R                  
HYANNIS        CLEAR     35  22  58 CALM      30.43R                  
CHATHAM        CLEAR     38  21  50 N5        30.44R                  
PROVINCETOWN   CLEAR     39  23  52 N15       30.45R WCI  31          
NANTUCKET      CLEAR     40  22  48 N7        30.43R                  
MARTHAS VNYRD  CLEAR     28  20  71 N6        30.44R WCI  22          
$$
 
MAZALL-250300-
CENTRAL AND WESTERN MASSACHUSETTS
  
CITY           SKY/WX    TMP DP  RH WIND       PRES   REMARKS
WORCESTER      PTCLDY    32  15  49 NE5       30.39S WCI  27          
FITCHBURG      CLEAR     25  20  81 NW5       30.43R WCI  19          
ORANGE         PTCLDY    25  22  88 CALM      30.42R                  
SPRINGFIELD    MOCLDY    25  21  83 CALM      30.41R                  
WESTFIELD      MOCLDY    26  23  88 CALM      30.42R                  
NORTH ADAMS    MOCLDY    27  22  81 CALM      30.42R                  
PITTSFIELD     MOCLDY    28  21  75 CALM      30.37R                  
$$
 
RIZALL-250300-
RHODE ISLAND
  
CITY           SKY/WX    TMP DP  RH WIND       PRES   REMARKS
PROVIDENCE     MOCLDY    34  21  59 CALM      30.45R                  
NEWPORT        PTCLDY    34  21  59 N6        30.42R WCI  29          
BLOCK ISLAND   PTCLDY    39  22  50 N5        30.44R                  
SMITHFIELD     PTCLDY    32  20  61 E6        30.44R WCI  26          
WESTERLY       PTCLDY    29  24  82 CALM      30.43R                  
$$
 
CTZALL-250300-
CONNECTICUT
  
CITY           SKY/WX    TMP DP  RH WIND       PRES   REMARKS
BRADLEY INTL   MOCLDY    32  21  64 CALM      30.43R                  
HARTFORD       MOCLDY    33  24  69 CALM      30.44R                  
BRIDGEPORT     MOCLDY    40  25  55 NE5       30.43R                  
DANBURY        MOCLDY    30  24  78 CALM      30.43R                  
GROTON         PTCLDY    30  25  81 CALM      30.43R                  
NEW HAVEN      MOCLDY    37  25  61 N3        30.43R                  
CHESTER        FAIR      36  19  51 CALM      30.42R                  
MERIDEN        MOCLDY    30  24  78 CALM      30.44R                  
WILLIMANTIC    MOCLDY    28  23  81 CALM      30.43R                  
OXFORD         MOCLDY    35  21  56 CALM      30.41R                  
$$

MEZ002-015-021-024-NHZ003-005-008-011-012-014-VTZ005-008-250300-
NORTHERN NEW ENGLAND
  
CITY           SKY/WX    TMP DP  RH WIND       PRES   REMARKS
PORTLAND ME    CLEAR     25  13  60 N6        30.47R WCI  18          
BANGOR ME      CLEAR     23  11  60 W5        30.47R WCI  17          
CONCORD NH     CLEAR     26  12  55 N6        30.45R WCI  19          
MANCHESTER NH  PTCLDY    30  12  47 N12       30.43R WCI  20          
NASHUA NH      CLEAR     29  16  58 N5        30.46R WCI  24          
PORTSMOUTH NH  PTCLDY    26  12  54 NW5       30.44R WCI  21          
JAFFREY NH     CLEAR     27  16  63 VRB3      30.39S                  
KEENE NH       CLEAR     24  21  88 N3        30.43R                  
BURLINGTON VT  PTCLDY    23  12  62 E3        30.44F                  
MT. WASHINGTON CLOUDY    16 -69   1 N21         N/A  WCI  -2          
$$

NYZ052-076-250300-
EASTERN NEW YORK
  
CITY           SKY/WX    TMP DP  RH WIND       PRES   REMARKS
ALBANY         MOCLDY    26  18  71 N6        30.44R WCI  19          
NEW YORK CITY  MOCLDY    47  26  44 NE5       30.41R                  
$$
 
ANZALL-250300-
MARINE OBSERVATIONS
  
STATION/POSITION TIME  TEMP    WIND        PRES    VSBY  WAVE
                       AIR SEA DIR/SP/G                  HT/PER
                 (UTC) (F)     (DEG/KT/KT) (MB)    (MI)  (FT/S)
BOSTON BUOY      0140   38 50  360/ 16/ 19 1031.5R
BUZZARDS BAY     0100          350/ 12/ 14 1030.8R
NANTUCKET SOUND  0140      50  360/ 12/ 14   N/A
MASS BAY-STELLWA NOT AVBL
ISLE OF SHOALS   0100   33     340/ 16/ 18 1030.5R
S OF BLOCK IS    NOT AVBL
$$

......................KEY.........................
  SKY/WX - SKY CONDITION/PRESENT WEATHER
  TMP    - TEMPERATURE IN FAHRENHEIT
  DWPT   - DEWPOINT IN FAHRENHEIT
  RH     - RELATIVE HUMIDITY IN PERCENT
  WIND   - DIRECTION AND SPEED IN MPH
  PRES   - MEAN SEA LEVEL PRESSURE IN INCHES OF HG
  WCI    - WIND CHILL INDEX
  VSB    - VISIBILITY IN MILES
  HX     - HEAT INDEX
  TC     - TEMPERATURE IN CELSIUS
  VRB    - VARIABLE WIND DIRECTION
  N/A    - NOT AVAILABLE
  
      

Other recent Regional Weather Roundups

Mon Nov 30, 6:04pm

Mon Nov 30, 5:05pm

Mon Nov 30, 4:04pm

Mon Nov 30, 3:05pm

Mon Nov 30, 2:05pm

Mon Nov 30, 1:04pm

Mon Nov 30, 12:05pm

Mon Nov 30, 11:04am

Mon Nov 30, 10:04am

Mon Nov 30, 9:04am

Mon Nov 30, 8:04am

Mon Nov 30, 7:05am

Mon Nov 30, 6:04am

Mon Nov 30, 5:05am

Mon Nov 30, 4:04am

Mon Nov 30, 3:04am

Mon Nov 30, 2:04am

Mon Nov 30, 1:04am

Mon Nov 30, 12:04am

Sun Nov 29, 11:04pm

Sun Nov 29, 10:04pm

Sun Nov 29, 9:04pm

Sun Nov 29, 8:04pm

Sun Nov 29, 7:04pm

Sun Nov 29, 6:04pm

Sun Nov 29, 5:04pm

Sun Nov 29, 4:05pm

Sun Nov 29, 3:04pm

Sun Nov 29, 2:04pm

Sun Nov 29, 1:04pm

Sun Nov 29, 12:04pm

Sun Nov 29, 11:04am

Sun Nov 29, 10:04am

Sun Nov 29, 9:04am

Sun Nov 29, 8:05am

Sun Nov 29, 7:04am

Sun Nov 29, 6:04am

Sun Nov 29, 5:04am

Sun Nov 29, 4:04am

Sun Nov 29, 3:04am

Sun Nov 29, 2:05am

Sun Nov 29, 1:04am

Sun Nov 29, 12:04am

Sat Nov 28, 11:04pm

Sat Nov 28, 10:04pm

Sat Nov 28, 9:04pm

Sat Nov 28, 8:04pm

Sat Nov 28, 7:04pm

Sat Nov 28, 6:04pm

Sat Nov 28, 5:04pm

Sat Nov 28, 4:04pm

Sat Nov 28, 3:04pm

Sat Nov 28, 2:04pm

Sat Nov 28, 1:04pm

Sat Nov 28, 12:04pm

Sat Nov 28, 11:04am

Sat Nov 28, 10:04am

Sat Nov 28, 9:04am

Sat Nov 28, 8:04am

Sat Nov 28, 7:04am

Sat Nov 28, 6:04am

Sat Nov 28, 5:04am

Sat Nov 28, 4:04am

Sat Nov 28, 3:05am

Sat Nov 28, 2:04am

Sat Nov 28, 1:04am

Sat Nov 28, 12:04am

Fri Nov 27, 11:05pm

Fri Nov 27, 10:04pm

Fri Nov 27, 9:04pm

Fri Nov 27, 8:04pm

Fri Nov 27, 7:04pm

Fri Nov 27, 6:04pm

Fri Nov 27, 5:04pm

Fri Nov 27, 4:05pm

Fri Nov 27, 3:05pm

Fri Nov 27, 2:05pm

Fri Nov 27, 1:04pm

Fri Nov 27, 12:04pm

Fri Nov 27, 11:04am

Fri Nov 27, 10:04am

Fri Nov 27, 9:05am

Fri Nov 27, 8:04am

Fri Nov 27, 7:04am

Fri Nov 27, 6:04am

Fri Nov 27, 5:04am

Fri Nov 27, 4:04am

Fri Nov 27, 3:04am

Fri Nov 27, 2:04am

Fri Nov 27, 1:04am

Fri Nov 27, 12:04am

Thu Nov 26, 11:04pm

Thu Nov 26, 10:04pm

Thu Nov 26, 9:04pm

Thu Nov 26, 8:04pm

Thu Nov 26, 7:04pm

Thu Nov 26, 6:04pm

Thu Nov 26, 5:04pm

Thu Nov 26, 4:04pm

Thu Nov 26, 2:04pm

Thu Nov 26, 1:04pm

Thu Nov 26, 12:04pm

Thu Nov 26, 11:04am

Thu Nov 26, 10:04am

Thu Nov 26, 9:04am

Thu Nov 26, 8:04am

Thu Nov 26, 7:04am

Thu Nov 26, 6:04am

Thu Nov 26, 5:04am

Thu Nov 26, 4:04am

Thu Nov 26, 3:04am

Thu Nov 26, 2:04am

Thu Nov 26, 1:04am

Thu Nov 26, 12:04am

Wed Nov 25, 11:04pm

Wed Nov 25, 10:04pm

Wed Nov 25, 9:04pm

Wed Nov 25, 8:04pm

Wed Nov 25, 7:04pm

Wed Nov 25, 6:04pm

Wed Nov 25, 5:04pm

Wed Nov 25, 4:04pm

Wed Nov 25, 3:05pm

Wed Nov 25, 2:04pm

Wed Nov 25, 1:04pm

Wed Nov 25, 12:05pm

Wed Nov 25, 11:04am

Wed Nov 25, 10:04am

Wed Nov 25, 9:04am

Wed Nov 25, 8:04am

Wed Nov 25, 7:04am

Wed Nov 25, 6:04am

Wed Nov 25, 5:04am

Wed Nov 25, 4:04am

Wed Nov 25, 3:04am

Wed Nov 25, 2:04am

Wed Nov 25, 1:04am

Wed Nov 25, 12:04am

Tue Nov 24, 11:04pm

Tue Nov 24, 10:04pm

Tue Nov 24, 8:04pm

Tue Nov 24, 7:04pm

Tue Nov 24, 6:04pm

Tue Nov 24, 5:04pm

Tue Nov 24, 4:05pm

Tue Nov 24, 3:05pm

Tue Nov 24, 2:05pm

Tue Nov 24, 1:05pm

Tue Nov 24, 12:04pm

Tue Nov 24, 11:04am

Tue Nov 24, 10:04am

Tue Nov 24, 9:04am

Tue Nov 24, 8:04am

Tue Nov 24, 7:04am

Tue Nov 24, 6:04am

Tue Nov 24, 5:04am

Tue Nov 24, 4:05am

Tue Nov 24, 3:04am

Tue Nov 24, 2:04am

Tue Nov 24, 1:04am

Tue Nov 24, 12:05am

Mon Nov 23, 11:04pm

Mon Nov 23, 10:04pm

Mon Nov 23, 9:04pm

Mon Nov 23, 8:04pm

Mon Nov 23, 7:04pm

Meta data:

ID: f64b53fd-0616-48b0-86e3-c38bbbdfde5b
Link: https://api.weather.gov/products/f64b53fd-0616-48b0-86e3-c38bbbdfde5b